#datint,netname,site,siteID,timestamp,IntT_Avg,BattV_Min,AirT2_Avg,AirT_Avg,AirT_Max,AirT_Min,SolarW_Avg,SolarMJ,WindS_Max,WindS_Avg,WindD_Avg,WindD_SD,EA_Avg,RH_Max,RH_Min,Td_Avg,Td_Max,Td_Min,ETo,ETr,SoilT4_Avg,SoilT8_Avg,SoilVWC8_Avg,wetstate_Avg,wetT_Avg,precip_accum,Precip_WPG,Precip_TB,Rso
hly,AgWx,beryljct,423,09FEB2019:00:00:00,21.5,12.73,23.8,23.2,24.3,21.7,0,0.0002,3.6,1.0,188,26,0.293,75,66,14.5,15.4,13.3,-0.00054,-0.00075,.,34.1,25,0,35.6,10.59,0.00,0.00,1E-6
hly,AgWx,beryljct,423,09FEB2019:01:00:00,20.9,12.81,22.9,23.2,24.5,21.4,0,0.0002,3.9,1.1,275,7.0,0.285,73,64,14.3,15.3,12.7,-0.00049,-0.00065,.,34.1,25,0,35.6,10.59,0.01,0.00,1E-6
hly,AgWx,beryljct,423,09FEB2019:02:00:00,20.2,12.78,22.3,22.1,24.5,20.0,0,0.0002,3.5,1.0,230,7.4,0.307,80,64,14.5,16.8,12.7,-0.00052,-0.00072,.,34.1,25,0,35.7,10.60,0.01,0.00,1E-6
hly,AgWx,beryljct,423,09FEB2019:03:00:00,18.8,12.59,18.2,19.6,24.2,15.8,0,0.0001,4.5,2.0,302,28,0.266,82,62,13.0,14.9,9.6,-0.00032,-0.00040,.,34.1,25,0,35.6,10.60,0.01,0.00,1E-6
hly,AgWx,beryljct,423,09FEB2019:04:00:00,17.4,12.54,17.1,15.6,17.0,14.4,0,0.0001,4.8,3.0,337,8.4,0.265,86,79,11.4,13.2,9.9,-0.00023,-0.00026,.,34.1,25,0,35.7,10.60,0.00,0.00,1E-6
hly,AgWx,beryljct,423,09FEB2019:05:00:00,16.0,12.5,15.6,14.3,17.1,12.6,0,0.0002,5.2,3.0,246,14,0.253,87,80,10.3,13.3,8.6,-0.00022,-0.00024,.,34.1,25,0,35.5,10.60,0.00,0.00,1E-6
hly,AgWx,beryljct,423,09FEB2019:06:00:00,15.3,12.6,15.3,14.7,17.0,12.7,0,0.0001,5.3,2.8,329,9.0,0.250,87,80,10.8,12.8,8.6,-0.00024,-0.00028,.,34.1,25,0,35.6,10.60,0.00,0.00,0.013114754
hly,AgWx,beryljct,423,09FEB2019:07:00:00,14.8,12.58,14.7,13.7,15.3,12.8,2,0.0061,5.5,2.1,170,31,0.242,88,84,10.1,12.2,9.0,0.00015,0.00025,.,34.1,25,0,35.6,10.60,0.00,0.00,0.31883656
hly,AgWx,beryljct,423,09FEB2019:08:00:00,14.6,12.6,16.1,14.6,18.3,13.5,64,0.2292,4.3,1.3,262,14,0.259,87,84,11.2,14.2,9.8,0.00070,0.00080,.,34.1,25,0,35.8,10.60,0.01,0.00,0.993743
hly,AgWx,beryljct,423,09FEB2019:09:00:00,23.3,14.82,25.3,23.0,27.6,18.3,330,1.1865,8.9,3.9,72,14,0.340,84,72,17.3,20.3,14.2,0.00356,0.00406,.,34.0,26,0,40.3,10.59,0.00,0.00,1.6023895
hly,AgWx,beryljct,423,09FEB2019:10:00:00,32.5,14.68,34.0,32.3,36.5,27.7,397,1.4279,23.2,8.9,148,15,0.345,73,43,18.8,21.1,16.0,0.00609,0.00780,.,34.0,25,0,45.7,10.59,0.00,0.00,2.0534097
hly,AgWx,beryljct,423,09FEB2019:11:00:00,37.0,13.46,35.0,35.2,37.0,31.6,331,1.1920,34.3,21.1,185,8.0,0.368,70,43,18.5,23.2,16.0,0.00668,0.00974,.,34.0,25,0,41.3,10.60,0.00,0.00,2.300166
hly,AgWx,beryljct,423,09FEB2019:12:00:00,34.4,13.45,31.5,31.1,31.6,30.6,207,0.7442,27.5,19.6,196,8.2,0.429,76,69,23.3,24.3,22.7,0.00353,0.00500,.,34.0,24,0,36.3,10.60,0.00,0.00,2.3038945
hly,AgWx,beryljct,423,09FEB2019:13:00:00,33.7,13.55,31.9,31.1,32.5,30.5,344,1.2388,26.3,18.1,191,8.0,0.447,78,71,24.1,25.9,22.8,0.00425,0.00561,.,34.0,25,0,38.0,10.59,0.00,0.00,2.0897245
hly,AgWx,beryljct,423,09FEB2019:14:00:00,36.8,14.2,34.7,33.9,35.2,31.4,618,2.2239,25.0,17.6,183,9.2,0.452,78,61,24.9,26.6,22.8,0.00709,0.00894,.,33.9,24,0,40.2,10.59,0.00,0.00,1.664949
hly,AgWx,beryljct,423,09FEB2019:15:00:00,39.0,14.17,36.4,35.6,36.5,34.8,440,1.5851,25.1,18.0,192,8.9,0.408,62,54,22.1,23.4,20.5,0.00651,0.00905,.,33.9,25,0,38.9,10.59,0.00,0.00,1.0784059
hly,AgWx,beryljct,423,09FEB2019:16:00:00,38.8,14.15,35.9,35.6,36.4,34.7,294,1.0586,24.0,15.9,184,10,0.425,63,55,23.0,24.1,21.3,0.00479,0.00698,.,33.9,25,0,38.4,10.58,0.00,0.00,0.40407061
hly,AgWx,beryljct,423,09FEB2019:17:00:00,37.7,14.18,35.1,34.6,35.0,34.2,146,0.5244,18.9,13.5,180,7.8,0.415,63,59,22.9,23.7,21.7,0.00174,0.00232,.,33.9,24,0,35.8,10.58,0.00,0.00,0.0255094672
hly,AgWx,beryljct,423,09FEB2019:18:00:00,34.1,12.97,32.4,32.3,34.3,30.7,6,0.0218,14.2,9.5,185,6.1,0.418,73,60,22.7,23.2,22.0,0.00045,0.00056,.,33.9,24,0,35.4,10.58,0.00,0.00,1E-6
hly,AgWx,beryljct,423,09FEB2019:19:00:00,30.5,13,29.7,29.4,30.9,28.7,0,0.0001,8.9,5.9,169,6.0,0.423,80,72,23.0,23.4,22.6,0.00001,0.00006,.,33.9,25,0,35.6,10.59,0.00,0.00,1E-6
hly,AgWx,beryljct,423,09FEB2019:20:00:00,29.0,12.96,29.3,28.7,29.4,28.1,0,0.0002,6.8,4.6,141,5.8,0.420,82,77,23.1,23.8,22.4,-0.00013,-0.00011,.,33.9,25,0,35.6,10.59,0.00,0.00,1E-6
hly,AgWx,beryljct,423,09FEB2019:21:00:00,27.5,12.8,29.5,28.7,30.2,26.4,0,0.0001,8.0,3.4,171,25,0.401,82,71,22.0,22.7,20.4,-0.00021,-0.00023,.,33.9,25,0,35.7,10.59,0.00,0.00,1E-6
hly,AgWx,beryljct,423,09FEB2019:22:00:00,28.6,12.91,31.3,30.3,32.7,28.1,0,0.0001,14.4,7.3,119,14,0.402,78,63,21.9,23.8,21.3,0.00022,0.00030,.,33.9,25,0,35.7,10.59,0.00,0.00,1E-6
hly,AgWx,beryljct,423,09FEB2019:23:00:00,30.1,12.91,29.5,31.4,31.9,30.4,0,0.0000,7.7,3.8,146,33,0.393,69,65,21.7,22.1,21.3,-0.00001,0.00001,.,33.9,25,0,35.8,10.59,0.00,0.00,2.5E-7
hly,AgWx,bigpiney,439,09FEB2019:00:00:00,-10.9,12.43,-14.0,-14.6,-12.8,-15.7,0,0.0001,6.0,3.4,226,10,0.059,82,78,-19.2,-16.9,-20.6,0.00001,0.00002,23.8,26.4,7,0,0.0,0.06,0.00,0.00,1E-6
hly,AgWx,bigpiney,439,09FEB2019:01:00:00,-11.6,12.36,-13.2,-13.8,-11.1,-16.4,0,0.0001,4.3,1.8,274,20,0.063,84,77,-18.1,-14.7,-21.6,-0.00002,-0.00002,23.5,26.3,7,0,0.0,0.06,0.00,0.00,1E-6
hly,AgWx,bigpiney,439,09FEB2019:02:00:00,-12.9,12.34,-14.7,-16.3,-13.9,-17.7,0,0.0001,5.1,3.2,233,7.7,0.054,83,78,-20.8,-17.5,-22.5,0.00001,0.00002,23.3,26.2,7,0,0.0,0.06,0.00,0.00,1E-6
hly,AgWx,bigpiney,439,09FEB2019:03:00:00,-13.9,12.3,-14.3,-15.8,-13.3,-17.7,0,0.0001,5.7,2.2,236,25,0.058,84,78,-20.2,-16.8,-22.5,-0.00002,-0.00002,23.1,26.1,7,0,0.0,0.06,0.00,0.00,1E-6
hly,AgWx,bigpiney,439,09FEB2019:04:00:00,-14.4,12.28,-15.7,-16.5,-14.3,-18.7,0,0.0001,5.3,2.3,235,21,0.054,82,77,-21.1,-18.3,-23.6,-0.00001,-0.00001,22.8,26.0,7,0,0.0,0.06,0.00,0.00,1E-6
hly,AgWx,bigpiney,439,09FEB2019:05:00:00,-14.5,12.27,-14.6,-15.9,-12.9,-17.5,0,0.0001,6.3,3.1,186,16,0.057,80,77,-20.7,-17.3,-22.6,0.00001,0.00001,22.6,25.8,7,0,0.0,0.06,0.00,0.00,1E-6
hly,AgWx,bigpiney,439,09FEB2019:06:00:00,-15.0,12.26,-17.0,-17.6,-15.2,-18.6,0,0.0001,4.6,1.0,302,16,0.050,80,77,-22.3,-19.9,-23.5,-0.00004,-0.00005,22.4,25.7,7,0,0.0,0.06,0.00,0.00,1E-6
hly,AgWx,bigpiney,439,09FEB2019:07:00:00,-15.8,12.26,-16.0,-16.7,-14.6,-19.0,12,0.0424,3.8,1.6,259,6.9,0.053,81,76,-21.4,-18.9,-24.2,-0.00005,-0.00005,22.2,25.6,7,0,0.0,0.06,0.00,0.00,0.017533977
hly,AgWx,bigpiney,439,09FEB2019:08:00:00,-12.4,14.97,-11.1,-12.6,-7.9,-15.7,137,0.4940,3.5,1.1,228,23,0.068,79,78,-17.3,-12.6,-20.2,0.00029,0.00033,22.0,25.5,7,0,0.0,0.06,0.00,0.00,0.34182305
hly,AgWx,bigpiney,439,09FEB2019:09:00:00,-3.5,14.91,-10.5,-10.6,-8.2,-12.3,247,0.8892,3.6,1.8,35,18,0.071,79,77,-15.6,-13.1,-17.3,0.00088,0.00098,21.9,25.3,7,0,0.0,0.06,0.00,0.00,0.9714462
hly,AgWx,bigpiney,439,09FEB2019:10:00:00,1.3,14.88,-7.2,-8.1,-5.0,-10.5,357,1.2863,2.7,1.2,124,30,0.084,79,78,-13.0,-10.2,-15.4,0.00166,0.00180,21.9,25.2,7,0,0.0,0.06,0.00,0.00,1.5217614
hly,AgWx,bigpiney,439,09FEB2019:11:00:00,9.0,14.7,-1.8,-2.7,-0.1,-5.2,462,1.6617,3.9,1.7,34,22,0.097,77,69,-9.3,-7.3,-10.9,0.00258,0.00282,22.1,25.1,7,0,0.0,0.06,0.00,0.00,1.9043945
hly,AgWx,bigpiney,439,09FEB2019:12:00:00,14.4,14.61,4.4,3.6,6.4,-0.4,515,1.8531,3.7,1.3,94,20,0.126,71,64,-4.8,-2.6,-7.7,0.00365,0.00397,22.3,25.0,7,0,0.0,0.06,0.00,0.00,2.0820234
hly,AgWx,bigpiney,439,09FEB2019:13:00:00,18.4,14.55,8.6,7.7,8.9,6.2,486,1.7484,6.6,3.4,97,12,0.145,70,63,-1.1,0.7,-3.4,0.00368,0.00413,22.7,25.1,7,0,0.0,0.06,0.00,0.00,2.0418577
hly,AgWx,bigpiney,439,09FEB2019:14:00:00,18.1,14.55,9.5,9.4,10.4,8.6,394,1.4178,7.1,4.5,96,11,0.158,69,66,0.7,2.1,-0.3,0.00305,0.00353,23.0,25.1,7,0,0.0,0.06,0.00,0.00,1.7899603
hly,AgWx,bigpiney,439,09FEB2019:15:00:00,17.2,14.59,11.4,10.5,11.7,9.3,292,1.0523,6.8,4.2,109,9.8,0.169,69,66,1.9,3.4,0.6,0.00231,0.00274,23.4,25.1,7,0,0.0,0.06,0.00,0.00,1.3473997
hly,AgWx,bigpiney,439,09FEB2019:16:00:00,16.6,14.62,11.5,11.2,11.8,10.8,128,0.4618,5.5,2.9,122,19,0.171,72,66,2.9,3.9,2.1,0.00107,0.00136,23.6,25.3,7,0,0.0,0.06,0.00,0.00,0.7610428
hly,AgWx,bigpiney,439,09FEB2019:17:00:00,14.3,13.05,10.3,10.3,11.1,9.3,41,0.1471,5.1,3.4,324,6.4,0.170,72,69,2.7,3.6,1.3,0.00001,0.00023,23.8,25.4,7,0,0.0,0.06,0.00,0.00,0.17883297
hly,AgWx,bigpiney,439,09FEB2019:18:00:00,10.3,12.85,7.6,7.7,9.5,3.9,1,0.0019,4.7,2.7,282,6.9,0.152,74,69,0.2,1.6,-3.1,-0.00008,-0.00008,23.9,25.5,7,0,0.0,0.06,0.00,0.00,0.0026474629
hly,AgWx,bigpiney,439,09FEB2019:19:00:00,6.4,12.8,2.1,2.4,5.3,0.8,0,0.0001,5.7,3.2,226,11,0.130,80,72,-3.0,-1.2,-4.4,-0.00007,-0.00007,23.9,25.6,7,0,0.0,0.06,0.00,0.00,1E-6
hly,AgWx,bigpiney,439,09FEB2019:20:00:00,3.6,12.75,0.0,-0.4,1.3,-1.7,0,0.0001,5.8,4.5,242,6.1,0.119,83,79,-4.9,-3.4,-6.4,-0.00003,-0.00002,23.9,25.6,7,0,0.0,0.06,0.00,0.00,1E-6
hly,AgWx,bigpiney,439,09FEB2019:21:00:00,1.2,12.69,-3.2,-3.3,-1.3,-5.7,0,0.0001,6.4,3.7,227,9.1,0.104,84,81,-7.4,-5.6,-10.1,-0.00006,-0.00006,23.7,25.7,7,0,0.0,0.06,0.00,0.00,1E-6
hly,AgWx,bigpiney,439,09FEB2019:22:00:00,-1.6,12.63,-5.9,-6.8,-5.5,-8.1,0,0.0001,6.0,3.3,235,25,0.093,87,82,-10.5,-8.5,-12.1,-0.00006,-0.00007,23.5,25.8,7,0,0.0,0.06,0.00,0.00,1E-6
hly,AgWx,bigpiney,439,09FEB2019:23:00:00,-3.2,12.62,-6.8,-6.7,-4.8,-8.2,0,0.0000,5.4,3.1,211,19,0.086,87,82,-10.3,-7.8,-12.2,-0.00002,-0.00002,23.4,25.8,7,0,0.0,0.06,0.00,0.00,2.5E-7
hly,AgWx,blo,425,09FEB2019:00:00:00,5.3,12.84,7.4,7.5,9.4,5.7,0,0.0001,3.9,2.0,259,10,0.186,91,85,4.7,6.4,2.8,-0.00020,-0.00024,33.2,34.3,22,100,9.8,14.71,0.00,0.00,1E-6
hly,AgWx,blo,425,09FEB2019:01:00:00,4.5,12.81,6.2,6.0,8.2,5.0,0,0.0001,3.7,2.3,239,8.5,0.178,91,88,3.4,5.9,2.2,-0.00018,-0.00021,33.2,34.3,22,100,9.0,14.71,0.00,0.00,1E-6
hly,AgWx,blo,425,09FEB2019:02:00:00,4.2,12.77,8.0,7.8,9.7,5.3,0,0.0001,3.0,1.9,270,19,0.198,92,87,5.3,7.3,2.5,-0.00021,-0.00026,33.2,34.3,22,100,9.8,14.71,0.00,0.00,1E-6
hly,AgWx,blo,425,09FEB2019:03:00:00,5.2,12.73,7.7,7.0,9.0,5.1,0,0.0001,3.9,2.6,274,21,0.193,92,88,4.7,7.0,2.4,-0.00017,-0.00020,33.2,34.3,23,100,11.3,14.71,0.00,0.00,1E-6
hly,AgWx,blo,425,09FEB2019:04:00:00,5.6,12.68,5.4,5.8,7.7,3.7,0,0.0001,4.2,2.6,267,16,0.174,91,88,3.4,5.5,1.0,-0.00016,-0.00018,33.2,34.3,22,100,8.8,14.71,0.00,0.00,1E-6
hly,AgWx,blo,425,09FEB2019:05:00:00,4.3,12.66,6.5,6.6,9.3,3.8,0,0.0001,3.6,2.1,269,14,0.181,92,86,4.1,7.3,0.7,-0.00019,-0.00023,33.2,34.3,22,100,9.9,14.71,0.00,0.00,1E-6
hly,AgWx,blo,425,09FEB2019:06:00:00,5.7,12.63,7.0,6.7,8.7,5.4,0,0.0001,3.5,2.0,267,18,0.183,91,88,4.2,6.5,2.7,-0.00020,-0.00024,33.2,34.3,22,100,11.4,14.71,0.01,0.00,1E-6
hly,AgWx,blo,425,09FEB2019:07:00:00,5.2,12.63,5.0,5.0,7.6,3.7,4,0.0149,3.9,2.1,254,17,0.168,90,87,2.4,5.2,0.8,-0.00027,-0.00029,33.2,34.3,23,100,8.8,14.71,0.00,0.00,0.0134207822
hly,AgWx,blo,425,09FEB2019:08:00:00,5.6,12.91,7.0,6.8,8.2,4.6,101,0.3643,3.0,1.5,276,16,0.188,90,87,4.3,5.9,1.7,0.00015,0.00019,33.2,34.3,22,100,17.6,14.71,0.01,0.00,0.30579293
hly,AgWx,blo,425,09FEB2019:09:00:00,10.6,14.37,9.2,8.8,9.8,6.8,163,0.5856,2.3,0.8,285,14,0.206,90,89,6.3,7.4,4.2,0.00117,0.00127,33.2,34.3,23,100,27.8,14.70,0.00,0.00,0.9285612
hly,AgWx,blo,425,09FEB2019:10:00:00,14.7,14.96,10.4,10.1,11.6,8.8,296,1.0653,6.5,2.5,199,29,0.195,90,71,5.8,8.2,3.5,0.00238,0.00264,33.1,34.3,22,100,34.5,14.71,0.00,0.00,1.4909222
hly,AgWx,blo,425,09FEB2019:11:00:00,16.3,14.97,12.0,12.0,12.7,11.1,291,1.0464,5.5,2.9,179,13,0.175,71,65,3.2,3.7,2.7,0.00271,0.00312,33.1,34.3,23,100,36.4,14.70,0.00,0.00,1.896521
hly,AgWx,blo,425,09FEB2019:12:00:00,18.7,14.58,13.1,13.1,13.9,12.3,325,1.1685,5.2,2.0,102,21,0.182,69,63,3.6,4.4,2.9,0.00320,0.00359,33.1,34.3,22,100,41.6,14.70,0.00,0.00,2.0970816
hly,AgWx,blo,425,09FEB2019:13:00:00,21.8,14.49,14.4,14.6,15.4,13.9,443,1.5961,7.8,4.3,124,13,0.189,66,61,4.6,5.5,3.4,0.00410,0.00473,33.1,34.3,22,100,39.8,14.70,0.00,0.00,2.0782498
hly,AgWx,blo,425,09FEB2019:14:00:00,22.2,14.51,14.7,14.7,15.1,14.3,318,1.1436,5.5,3.2,121,17,0.186,66,60,4.3,5.3,3.3,0.00316,0.00367,33.1,34.3,22,100,38.4,14.70,0.00,0.00,1.8447816
hly,AgWx,blo,425,09FEB2019:15:00:00,21.1,14.54,14.3,14.5,15.3,14.0,186,0.6711,5.2,2.2,223,15,0.218,79,64,7.3,9.5,5.0,0.00191,0.00220,33.1,34.3,23,100,33.3,14.70,0.01,0.00,1.4107911
hly,AgWx,blo,425,09FEB2019:16:00:00,20.4,13.91,14.6,14.7,15.4,14.2,116,0.4181,3.8,2.4,199,13,0.257,91,79,11.2,12.2,9.4,0.00101,0.00117,33.1,34.2,22,100,28.4,14.72,0.01,0.00,0.8273208
hly,AgWx,blo,425,09FEB2019:17:00:00,19.2,13.29,14.8,14.8,15.1,14.4,43,0.1553,3.2,1.8,97,17,0.267,91,89,12.4,12.7,12.1,-0.00020,-0.00016,33.1,34.2,22,100,25.0,14.72,0.01,0.00,0.22466906
hly,AgWx,blo,425,09FEB2019:18:00:00,17.5,13.11,14.5,14.5,14.9,14.2,1,0.0028,4.5,1.6,166,39,0.265,91,90,12.2,12.7,11.9,-0.00009,-0.00012,33.1,34.2,22,100,21.8,14.73,0.00,0.00,0.0056897675
hly,AgWx,blo,425,09FEB2019:19:00:00,16.0,13.05,14.7,14.6,15.3,13.1,0,0.0001,5.5,2.3,195,36,0.263,90,89,12.1,12.9,10.4,-0.00006,-0.00007,33.1,34.2,22,100,20.6,14.73,0.00,0.00,1E-6
hly,AgWx,blo,425,09FEB2019:20:00:00,15.4,12.98,14.1,14.2,15.0,13.2,0,0.0001,4.0,1.7,261,28,0.263,92,90,12.1,12.9,10.9,-0.00009,-0.00011,33.1,34.2,22,100,20.7,14.73,0.01,0.00,1E-6
hly,AgWx,blo,425,09FEB2019:21:00:00,15.6,12.96,14.7,14.5,14.9,13.9,0,0.0001,9.1,4.5,237,11,0.271,93,92,12.7,13.2,12.0,-0.00003,-0.00003,33.1,34.2,22,100,20.9,14.73,0.00,0.00,1E-6
hly,AgWx,blo,425,09FEB2019:22:00:00,16.1,12.93,14.7,14.6,15.0,14.2,0,0.0001,7.4,4.9,223,8.1,0.272,93,92,12.8,13.3,12.4,-0.00001,-0.00001,33.1,34.2,22,100,20.7,14.73,0.00,0.00,1E-6
hly,AgWx,blo,425,09FEB2019:23:00:00,16.1,12.92,14.6,14.2,14.4,14.0,0,0.0000,5.4,4.2,223,6.6,0.271,93,93,12.5,12.8,12.2,-0.00001,-0.00001,33.1,34.2,22,100,20.4,14.73,0.00,0.00,2.5E-7
hly,AgWx,bloomfield,441,09FEB2019:00:00:00,27.7,12.62,28.4,27.7,29.4,25.6,6,0.0201,8.3,5.8,115,16,0.253,55,44,11.0,11.8,9.9,0.00045,0.00059,32.6,33.8,19,0,0.0,0.40,0.00,0.00,1E-6
hly,AgWx,bloomfield,441,09FEB2019:01:00:00,26.9,12.59,28.0,27.4,28.3,26.4,5,0.0189,8.3,5.8,112,13,0.253,53,48,11.3,11.8,10.9,0.00043,0.00058,32.6,33.8,19,0,0.0,0.40,0.00,0.00,1E-6
hly,AgWx,bloomfield,441,09FEB2019:02:00:00,26.3,12.57,26.8,26.5,27.9,25.0,5,0.0186,7.5,4.6,130,15,0.257,57,49,11.4,12.2,10.8,0.00025,0.00037,32.6,33.8,19,0,0.0,0.40,0.00,0.00,1E-6
hly,AgWx,bloomfield,441,09FEB2019:03:00:00,26.0,12.52,26.6,26.0,27.1,25.2,5,0.0188,7.5,5.7,127,5.7,0.276,60,53,12.9,13.8,12.0,0.00029,0.00040,32.6,33.8,19,0,0.0,0.40,0.00,0.00,1E-6
hly,AgWx,bloomfield,441,09FEB2019:04:00:00,26.2,12.48,26.3,26.1,26.7,25.5,5,0.0187,9.4,5.8,106,8.3,0.284,61,58,13.7,13.9,13.6,0.00028,0.00039,32.5,33.7,19,0,0.0,0.40,0.00,0.00,1E-6
hly,AgWx,bloomfield,441,09FEB2019:05:00:00,26.7,12.44,27.0,26.4,26.8,26.1,5,0.0188,10.7,7.5,91,6.7,0.277,58,56,13.3,13.8,12.9,0.00043,0.00055,32.5,33.7,19,0,0.0,0.40,0.00,0.00,1E-6
hly,AgWx,bloomfield,441,09FEB2019:06:00:00,27.0,12.44,26.7,26.2,26.6,25.8,5,0.0183,10.9,7.5,87,6.9,0.269,58,54,12.7,13.2,12.1,0.00045,0.00057,32.4,33.7,19,0,0.0,0.40,0.00,0.00,1E-6
hly,AgWx,bloomfield,441,09FEB2019:07:00:00,27.3,12.44,27.0,26.5,27.4,26.1,20,0.0728,11.3,8.2,84,7.1,0.269,56,52,12.5,12.8,12.2,0.00074,0.00138,32.4,33.6,19,0,0.0,0.40,0.00,0.00,0.073150412
hly,AgWx,bloomfield,441,09FEB2019:08:00:00,28.4,12.68,29.2,28.4,29.8,27.3,100,0.3590,13.0,8.8,76,9.8,0.270,54,49,12.4,13.4,11.8,0.00252,0.00401,32.3,33.6,19,0,0.0,0.40,0.00,0.00,0.6043089
hly,AgWx,bloomfield,441,09FEB2019:09:00:00,31.6,14.67,33.3,32.1,34.5,29.8,253,0.9112,15.3,10.7,71,9.7,0.282,50,42,13.5,14.8,12.6,0.00487,0.00703,32.3,33.5,19,0,0.0,0.40,0.00,0.00,1.2949475
hly,AgWx,bloomfield,441,09FEB2019:10:00:00,36.3,14.63,37.3,36.2,38.9,34.3,313,1.1267,13.9,10.3,69,9.8,0.294,43,38,14.3,15.9,13.3,0.00660,0.00923,32.3,33.5,19,0,0.0,0.40,0.00,0.00,1.8663651
hly,AgWx,bloomfield,441,09FEB2019:11:00:00,40.6,14.15,41.6,40.5,43.1,38.3,392,1.4127,14.1,10.0,66,9.7,0.315,39,35,16.1,17.4,15.0,0.00856,0.01167,32.3,33.5,19,0,0.0,0.40,0.00,0.00,2.247039
hly,AgWx,bloomfield,441,09FEB2019:12:00:00,44.5,14.15,45.2,44.4,45.8,42.3,258,0.9278,16.1,7.8,102,17,0.311,35,27,15.7,17.5,13.8,0.00775,0.01085,32.3,33.5,19,0,0.0,0.40,0.00,0.00,2.4103895
hly,AgWx,bloomfield,441,09FEB2019:13:00:00,46.2,14.12,46.2,45.7,46.1,45.3,200,0.7203,17.6,9.0,138,13,0.315,31,29,16.1,17.2,14.8,0.00754,0.01103,32.3,33.5,19,0,0.0,0.40,0.00,0.00,2.3357145
hly,AgWx,bloomfield,441,09FEB2019:14:00:00,46.9,14.1,46.1,45.8,46.2,45.5,180,0.6469,16.3,8.8,145,12,0.350,35,31,18.2,19.3,16.7,0.00698,0.01028,32.3,33.4,19,0,0.0,0.40,0.00,0.00,2.0270697
hly,AgWx,bloomfield,441,09FEB2019:15:00:00,46.7,14.13,46.4,45.9,46.9,44.9,150,0.5399,11.2,6.7,110,13,0.370,39,33,19.8,21.5,19.0,0.00564,0.00825,32.3,33.5,19,0,0.0,0.40,0.00,0.00,1.5182526
hly,AgWx,bloomfield,441,09FEB2019:16:00:00,46.2,13.07,44.7,44.5,44.9,44.1,91,0.3289,12.9,7.3,78,15,0.387,40,38,21.0,21.4,20.6,0.00438,0.00684,32.3,33.4,19,0,0.0,0.40,0.00,0.00,0.8622275
hly,AgWx,bloomfield,441,09FEB2019:17:00:00,44.4,12.82,45.5,44.4,48.0,41.1,33,0.1201,13.1,5.4,169,31,0.301,45,17,16.4,21.8,5.4,0.00225,0.00437,32.3,33.4,19,0,0.0,0.40,0.00,0.00,0.21200916
hly,AgWx,bloomfield,441,09FEB2019:18:00:00,44.8,12.75,46.0,46.1,47.5,44.7,7,0.0200,18.6,10.6,238,9.7,0.179,20,16,3.9,7.3,0.9,0.00292,0.00349,32.3,33.4,19,0,0.0,0.40,0.00,0.00,0.003712797
hly,AgWx,bloomfield,441,09FEB2019:19:00:00,44.0,12.73,42.2,42.9,45.6,38.7,5,0.0197,21.6,11.3,262,8.8,0.161,22,14,0.8,3.5,-1.5,0.00272,0.00321,32.4,33.4,19,0,0.0,0.40,0.00,0.00,1E-6
hly,AgWx,bloomfield,441,09FEB2019:20:00:00,39.8,12.69,37.6,37.3,38.6,35.9,5,0.0196,8.9,6.7,235,9.0,0.181,26,22,3.7,4.8,2.4,0.00167,0.00208,32.4,33.5,19,0,0.0,0.40,0.00,0.00,1E-6
hly,AgWx,bloomfield,441,09FEB2019:21:00:00,36.0,12.67,33.9,34.6,36.7,28.9,5,0.0190,7.2,3.8,216,16,0.169,34,22,1.9,4.2,0.4,0.00110,0.00147,32.4,33.4,19,0,0.0,0.40,0.00,0.00,1E-6
hly,AgWx,bloomfield,441,09FEB2019:22:00:00,31.7,12.67,28.4,29.0,32.4,26.5,5,0.0193,6.7,3.1,183,35,0.180,38,28,3.5,4.5,2.5,0.00068,0.00092,32.4,33.4,19,0,0.0,0.40,0.00,0.00,1E-6
hly,AgWx,bloomfield,441,09FEB2019:23:00:00,29.5,12.66,30.7,28.0,30.7,25.6,5,0.0048,5.3,2.9,36,85,0.176,41,30,4.2,5.0,3.1,0.00016,0.00022,32.4,33.4,19,0,0.0,0.40,0.00,0.00,2.5E-7
hly,AgWx,bluebell,436,09FEB2019:00:00:00,1.7,12.61,-1.5,-1.1,3.2,-3.8,0,0.0001,4.6,1.5,314,27,0.111,82,72,-6.1,-1.9,-8.6,-0.00022,-0.00029,33.5,34.1,15,100,3.8,13.56,0.00,0.00,1E-6
hly,AgWx,bluebell,436,09FEB2019:01:00:00,-1.2,12.57,-4.3,-4.2,-1.5,-6.3,0,0.0001,6.3,2.5,332,15,0.098,83,78,-8.6,-5.7,-11.5,-0.00012,-0.00014,33.5,34.1,15,100,0.7,13.56,0.00,0.00,1E-6
hly,AgWx,bluebell,436,09FEB2019:02:00:00,-1.9,12.52,-1.4,-1.7,1.0,-4.7,0,0.0001,8.4,3.7,325,11,0.112,82,76,-6.4,-4.0,-9.4,-0.00008,-0.00008,33.5,34.1,15,100,2.7,13.56,0.00,0.00,1E-6
hly,AgWx,bluebell,436,09FEB2019:03:00:00,-1.0,12.46,-0.9,-1.2,0.4,-2.7,0,0.0001,8.3,3.8,325,15,0.114,81,77,-6.1,-4.4,-7.9,-0.00007,-0.00007,33.5,34.1,15,100,3.3,13.56,0.00,0.00,1E-6
hly,AgWx,bluebell,436,09FEB2019:04:00:00,-0.7,12.43,0.0,-0.3,0.7,-1.4,0,0.0001,9.3,5.5,317,13,0.119,81,78,-5.2,-3.9,-6.4,-0.00003,-0.00002,33.4,34.1,15,100,4.0,13.56,0.00,0.00,1E-6
hly,AgWx,bluebell,436,09FEB2019:05:00:00,-0.7,12.41,-0.5,-0.7,0.8,-2.7,0,0.0001,6.3,3.0,336,17,0.116,81,78,-5.5,-3.9,-7.3,-0.00011,-0.00012,33.4,34.1,15,100,3.7,13.57,0.00,0.00,1E-6
hly,AgWx,bluebell,436,09FEB2019:06:00:00,-2.3,12.4,-2.9,-3.7,-1.6,-4.8,0,0.0001,6.4,3.0,335,14,0.105,84,80,-7.8,-5.3,-9.1,-0.00011,-0.00012,33.4,34.1,15,100,0.8,13.57,0.00,0.00,1E-6
hly,AgWx,bluebell,436,09FEB2019:07:00:00,-2.5,12.39,-2.1,-2.4,-0.2,-4.0,10,0.0358,6.9,3.8,331,12,0.107,83,79,-6.8,-4.5,-8.5,-0.00010,-0.00009,33.4,34.1,15,100,2.6,13.56,0.00,0.00,0.0247200636
hly,AgWx,bluebell,436,09FEB2019:08:00:00,1.7,14.05,2.0,0.2,4.4,-3.5,176,0.6346,6.9,2.3,276,32,0.127,82,76,-4.8,-1.6,-7.7,0.00070,0.00082,33.4,34.1,15,100,16.3,13.56,0.00,0.00,0.39815612
hly,AgWx,bluebell,436,09FEB2019:09:00:00,14.8,14.81,10.8,9.7,15.5,4.5,406,1.4602,2.2,0.3,214,16,0.162,76,56,0.5,4.0,-2.7,0.00325,0.00349,33.4,34.0,15,39,45.3,13.57,0.00,0.00,1.051641
hly,AgWx,bluebell,436,09FEB2019:10:00:00,24.5,14.36,13.0,13.2,18.2,11.9,475,1.7113,4.0,2.0,193,7.9,0.186,70,53,3.8,5.3,0.3,0.00413,0.00457,33.4,34.0,15,57,46.7,13.57,0.01,0.00,1.6159776
hly,AgWx,bluebell,436,09FEB2019:11:00:00,25.3,14.34,13.5,13.6,14.6,12.6,477,1.7172,5.1,2.6,191,7.1,0.198,72,68,5.7,7.0,5.0,0.00426,0.00472,33.4,34.0,15,83,42.7,13.56,0.00,0.00,2.0099183
hly,AgWx,bluebell,436,09FEB2019:12:00:00,26.3,14.28,16.5,16.2,19.1,13.9,628,2.2592,4.3,2.3,205,10,0.216,72,63,7.2,10.0,5.7,0.00612,0.00673,33.4,34.0,15,24,49.8,13.56,0.00,0.00,2.1955363
hly,AgWx,bluebell,436,09FEB2019:13:00:00,28.9,14.29,16.9,16.7,17.4,16.4,513,1.8458,4.5,2.8,175,9.3,0.228,73,66,8.6,9.5,7.3,0.00503,0.00558,33.4,34.0,15,12,50.4,13.56,0.00,0.00,2.1569328
hly,AgWx,bluebell,436,09FEB2019:14:00:00,27.4,14.3,16.1,16.3,17.2,14.9,398,1.4316,6.1,3.6,172,6.7,0.230,76,70,9.1,9.9,8.3,0.00379,0.00428,33.4,34.0,15,74,43.6,13.56,0.00,0.00,1.8993102
hly,AgWx,bluebell,436,09FEB2019:15:00:00,23.8,14.37,14.4,14.3,15.0,14.0,274,0.9879,6.6,2.5,182,6.1,0.218,76,73,7.9,8.8,7.3,0.00247,0.00279,33.4,34.0,15,100,37.4,13.56,0.00,0.00,1.4465744
hly,AgWx,bluebell,436,09FEB2019:16:00:00,21.6,14.4,13.8,13.7,14.4,13.3,170,0.6132,3.6,1.8,199,6.2,0.216,79,74,7.9,8.5,6.7,0.00129,0.00148,33.4,34.0,15,100,31.2,13.56,0.00,0.00,0.8406188
hly,AgWx,bluebell,436,09FEB2019:17:00:00,17.9,13.23,13.4,13.1,14.3,11.9,44,0.1582,3.4,0.4,220,13,0.214,80,74,7.3,8.4,5.9,-0.00015,-0.00013,33.4,34.0,15,100,22.9,13.56,0.00,0.00,0.21936127
hly,AgWx,bluebell,436,09FEB2019:18:00:00,14.4,12.91,10.9,11.1,13.5,9.2,1,0.0033,5.3,1.4,324,16,0.199,84,76,6.2,8.2,4.7,-0.00015,-0.00019,33.4,34.0,15,100,16.2,13.56,0.01,0.00,0.0047744933
hly,AgWx,bluebell,436,09FEB2019:19:00:00,11.8,12.85,10.5,9.7,11.7,7.6,0,0.0001,3.9,1.0,332,21,0.198,85,79,5.3,7.1,3.4,-0.00018,-0.00024,33.4,34.0,15,100,15.8,13.56,0.00,0.00,1E-6
hly,AgWx,bluebell,436,09FEB2019:20:00:00,12.4,12.81,11.6,11.6,13.0,9.7,0,0.0001,3.3,0.5,268,30,0.209,83,78,6.9,8.2,4.5,-0.00026,-0.00037,33.4,34.0,15,100,17.6,13.56,0.00,0.00,1E-6
hly,AgWx,bluebell,436,09FEB2019:21:00:00,9.5,12.76,5.6,6.0,10.6,3.6,0,0.0001,3.9,1.8,336,9.2,0.164,87,78,2.3,6.2,0.0,-0.00012,-0.00014,33.4,34.0,15,100,10.4,13.56,0.00,0.00,1E-6
hly,AgWx,bluebell,436,09FEB2019:22:00:00,6.3,12.74,3.6,3.4,4.7,1.2,0,0.0001,5.9,2.6,338,21,0.157,89,86,0.5,2.2,-1.9,-0.00008,-0.00010,33.4,34.0,15,100,7.8,13.56,0.00,0.00,1E-6
hly,AgWx,bluebell,436,09FEB2019:23:00:00,5.1,12.73,4.1,3.2,3.9,2.6,0,0.0000,4.4,2.7,347,10,0.159,88,87,0.4,1.2,-0.4,-0.00002,-0.00002,33.4,34.0,15,100,7.7,13.56,0.00,0.00,2.5E-7
hly,AgWx,bluecreek,403,09FEB2019:00:00:00,14.8,12.87,15.8,16.0,17.2,14.5,0,0.0000,6.3,4.7,347,12,0.224,75,70,8.6,9.7,7.2,0.00006,0.00010,32.4,32.7,40,.,.,14.25,0.00,0.00,1E-6
hly,AgWx,bluecreek,403,09FEB2019:01:00:00,14.4,12.83,14.3,14.0,16.2,11.9,0,0.0000,10.4,7.0,334,5.6,0.216,77,72,7.5,9.3,6.0,0.00011,0.00015,32.4,32.9,40,.,.,14.25,0.00,0.00,1E-6
hly,AgWx,bluecreek,403,09FEB2019:02:00:00,12.8,12.8,12.3,12.0,14.2,10.4,0,0.0000,12.5,8.2,180,10,0.209,83,76,6.9,8.3,5.4,0.00008,0.00011,32.4,32.9,40,.,.,14.25,0.00,0.00,1E-6
hly,AgWx,bluecreek,403,09FEB2019:03:00:00,13.3,12.76,14.7,14.8,16.2,12.7,0,0.0000,8.3,6.3,340,5.9,0.215,78,70,7.7,9.0,6.0,0.00012,0.00016,32.4,32.8,40,.,.,14.25,0.00,0.00,1E-6
hly,AgWx,bluecreek,403,09FEB2019:04:00:00,14.0,12.73,13.9,13.6,14.7,12.6,0,0.0000,10.3,7.4,350,10,0.216,79,73,7.4,8.9,6.5,0.00011,0.00015,32.4,32.9,39,.,.,14.25,0.00,0.00,1E-6
hly,AgWx,bluecreek,403,09FEB2019:05:00:00,13.8,12.71,13.7,13.7,16.9,12.1,0,0.0000,9.3,6.4,264,8.8,0.210,78,69,7.2,10.3,6.4,0.00010,0.00013,32.4,32.8,39,.,.,14.25,0.00,0.00,1E-6
hly,AgWx,bluecreek,403,09FEB2019:06:00:00,13.4,12.7,14.4,14.0,15.1,13.1,0,0.0000,9.5,6.3,347,7.5,0.203,73,70,6.6,7.4,5.6,0.00012,0.00017,32.4,32.8,39,.,.,14.25,0.00,0.00,1E-6
hly,AgWx,bluecreek,403,09FEB2019:07:00:00,13.7,12.68,15.8,14.9,17.4,12.5,3,0.0095,11.1,7.2,343,5.9,0.213,76,65,7.0,8.2,5.4,0.00018,0.00023,32.4,32.9,39,.,.,14.25,0.01,0.00,0.009333685
hly,AgWx,bluecreek,403,09FEB2019:08:00:00,16.0,12.84,17.4,17.0,18.9,14.8,56,0.2017,9.4,7.0,339,6.2,0.223,72,63,7.9,9.8,6.4,0.00062,0.00120,32.4,32.8,39,.,.,14.25,0.00,0.00,0.26201438